Tracking 25963 objects as of 12-Aug-2022
HD Live streaming from Space Station
objects crossing your sky now

STARLINK-3077

Track STARLINK-3077 now!
10-day predictions
STARLINK-3077 is classified as:


NORAD ID: 49133
Int'l Code: 2021-082D
Perigee: 577.0 km
Apogee: 581.4 km
Inclination: 70.0 °
Period: 96.1 minutes
Semi major axis: 6950 km
RCS: Unknown
Launch date: September 14, 2021
Source: United States (US)
Launch site: AIR FORCE WESTERN TEST RANGE (AFWTR)
aabbcc
Your satellite tracking list
Your tracking list is empty




NASA's NSSDC Master Catalog

Two Line Element Set (TLE):
1 49133U 21082D   22223.76316177  .00000685  00000-0  65219-4 0  9998
2 49133  70.0005 347.1551 0003171 248.0870 111.9952 14.98320097 50366
Source of the keplerian elements: AFSPC